User: anonymous   Login
Location: Newark
(45.8378°N, 5.5389°E)
Time: 23:25:10
(UTC+00:00)
Language:

YUBILEINY - Orbit

View from above orbital plane
View from above orbital plane
View from above satellite
View from above satellite

Ground track
Ground track

The orbit data is extracted from the following two-line orbital elements,

1 32953U 08025A   19345.82376459  .00000037  00000-0  19437-3 0  9990
2 32953  82.5057  35.2257 0020382 105.6587 254.6770 12.43092866524195
Epoch (UTC): 11 December 2019 19:46:13
Eccentricity: 0.0020382
inclination: 82.5057°
perigee height: 1477 km
apogee height: 1509 km
right ascension of ascending node: 35.2257°
argument of perigee: 105.6587°
revolutions per day: 12.43092866
mean anomaly at epoch: 254.6770°
orbit number at epoch: 52419

The dashed part of the orbit path shows where the satellite is in the earth's shadow,  

DLR